#timestamp,LO_Frequency,Hit,StdDev 
1678172415.4,286047001.0,N
1678172435.2,286047000.3,N
1678172455.1,286046998.2,N
1678172456.0,286046998.2,N
1678172475.8,286047001.2,N
1678172495.6,286046998.6,N
1678172515.5,286046998.5,N
1678172535.3,286046998.6,N
1678172555.1,286046998.4,N
1678172575.9,286046998.7,N
1678172595.7,286047000.8,N
1678172615.6,286047000.3,N
1678172635.4,286047000.1,N
1678172655.2,286047002.1,N
1678172675.1,286047002.4,N
1678172676.0,286047002.4,N
1678172695.8,286047000.9,N
1678172715.6,286047002.7,N
1678172735.5,286047000.6,N
1678172755.3,286047000.8,N
1678172775.2,286047002.8,N
1678172795.9,286046999.9,N
1678172815.7,286047001.1,N
1678172835.6,286047000.8,N
1678172855.4,286046998.7,N
1678172875.2,286047000.2,N
1678172895.1,286047000.3,N
1678172896.0,286047000.3,N
1678172915.8,286047001.6,N
1678172935.7,286047000.2,N
1678172955.5,286047000.4,N
1678172975.3,286047000.6,N
1678172995.2,286047000.4,N
1678173015.9,286047000.0,N
1678173035.7,286047002.7,N
1678173055.6,286047002.4,N
1678173075.4,286046999.8,N
1678173095.3,286047002.4,N
1678173115.1,286047004.4,Y
1678173116.0,286047004.4,P
1678173135.8,286047002.1,N
1678173155.7,286047001.9,N
1678173175.5,286046999.8,N
1678173195.3,286047002.6,N
1678173215.2,286047000.0,N
1678173235.0,286047000.0,N
1678173235.9,286047000.0,N
1678173255.8,286047002.3,N
1678173275.6,286047002.6,N
1678173295.4,286047002.7,N
1678173315.3,286046999.9,N
1678173335.1,286047002.7,N
1678173355.8,286047003.1,N
1678173375.7,286047004.2,N
1678173395.5,286047001.9,N
1678173415.4,286047003.2,N
1678173435.2,286047002.5,N
1678173455.0,286047000.0,N
1678173455.9,286047000.0,N
1678173475.8,286047000.6,N
1678173495.6,286047000.6,N
1678173515.4,286047000.6,N
1678173535.3,286047002.4,N
1678173555.1,286047002.1,N
1678173575.9,286047001.5,N
1678173595.7,286047001.9,N
1678173615.5,286047003.6,N
1678173635.4,286047003.2,N
1678173655.2,286047001.5,N
1678173675.0,286047002.4,N
1678173675.9,286047002.4,N
1678173695.8,286047002.6,N
1678173715.6,286047002.7,N
1678173735.4,286047002.7,N
1678173755.3,286047001.7,N
1678173775.1,286047002.1,N
1678173795.9,286047002.6,N
1678173815.7,286047001.0,N
1678173835.5,286046998.7,N
1678173855.4,286046998.9,N
1678173875.2,286046999.8,N
1678173895.0,286047000.4,N
1678173896.0,286047000.4,N
1678173915.8,286047000.0,N
1678173935.6,286047002.7,N
1678173955.5,286047000.6,N
1678173975.3,286047000.3,N
1678173995.1,286047000.7,N
1678174015.9,286046998.1,N
1678174035.7,286046998.7,N
1678174055.6,286046996.5,N
1678174075.4,286046998.3,N
1678174095.2,286047002.3,N
1678174115.1,286047002.1,N
1678174116.0,286047002.1,N
1678174135.8,286047002.7,N
1678174155.6,286047003.6,N
1678174175.5,286047004.4,N
1678174195.3,286047001.9,N
1678174215.2,286047002.2,N
1678174235.9,286047001.8,N
1678174255.7,286047004.3,N
1678174275.6,286047004.2,N
1678174295.4,286047002.6,N
1678174315.2,286046999.8,N
1678174335.1,286047004.2,N
1678174336.0,286047004.2,N
1678174355.8,286047005.6,N
1678174375.7,286047003.5,N
1678174395.5,286047003.2,N
1678174415.3,286047003.8,N
1678174435.2,286047004.3,N
1678174455.0,286047002.5,N
1678174455.9,286047002.5,N
1678174475.7,286047000.7,N
1678174495.6,286046999.0,N
1678174515.4,286047000.9,N
1678174535.3,286046999.9,N
1678174555.1,286046999.9,N
1678174575.8,286047002.4,N
1678174595.7,286046999.7,N
1678174615.5,286047002.2,N
1678174635.4,286046999.9,N
1678174655.2,286047002.3,N
1678174675.0,286047001.8,N
1678174675.9,286047001.8,N
1678174695.8,286047004.4,N
1678174715.6,286047003.6,N
1678174735.5,286047002.1,N
1678174755.3,286047002.6,N
1678174775.1,286047002.2,N
1678174795.9,286047002.4,N
1678174815.7,286047002.6,N
1678174835.5,286047000.2,N
1678174855.4,286047000.9,N
1678174875.2,286047002.3,N
1678174895.1,286047000.4,N
1678174896.0,286047000.4,N
1678174915.8,286047000.3,N
1678174935.6,286046998.2,N
1678174955.5,286046998.2,N
1678174975.3,286047000.4,N
1678174995.1,286047002.6,N
1678175015.9,286047002.6,N
1678175035.7,286047002.6,N
1678175055.6,286047002.7,N
1678175075.4,286047001.6,N
1678175095.2,286047003.3,N
1678175115.1,286047004.1,N
1678175116.0,286047004.1,N
1678175135.8,286047002.1,N
1678175155.6,286047001.9,N
1678175175.5,286047001.9,N
1678175195.3,286047004.1,N
1678175215.2,286047001.8,N
1678175235.9,286046999.8,N
1678175255.7,286047001.8,N
1678175275.6,286047004.3,N
1678175295.4,286047003.6,N
1678175315.2,286047003.7,N
1678175335.1,286047003.6,N
1678175336.0,286047003.6,N
1678175355.8,286047003.0,N
1678175375.7,286047005.5,Y
1678175395.5,286047002.5,P
1678175415.3,286047001.9,P
1678175435.2,286047001.7,P
1678175455.0,286047001.8,Y
1678175455.9,286047001.8,P
1678175475.8,286047000.6,P
1678175495.6,286047001.0,N
1678175515.4,286046998.6,N
1678175535.3,286046998.8,N
1678175555.1,286046998.6,N
1678175575.8,286047000.8,N
1678175595.7,286047000.9,N
1678175615.5,286046999.1,N
1678175635.4,286046998.8,N
1678175655.2,286047000.8,N
1678175675.0,286047000.5,N
1678175675.9,286047000.5,N
1678175695.8,286046998.5,N
1678175715.6,286046999.2,N
1678175735.4,286047001.0,N
1678175755.3,286047000.7,N
1678175775.1,286046998.5,N
1678175795.9,286046998.1,N
1678175815.7,286047000.7,N
1678175835.5,286047000.4,N
1678175855.4,286047000.6,N
1678175875.2,286047000.5,N
1678175895.0,286046998.7,N
1678175895.9,286046998.7,N
1678175915.8,286046998.9,N
1678175935.6,286046998.2,N
1678175955.5,286047000.0,N
1678175975.3,286047002.3,N
1678175995.1,286047002.7,N
